QPF
0.00 0.00 0.00 0.00 0.00 0.00 0.00 0.00 0.00 0.00 0.00 0.00 0.00 0.00 0.00 0.00 0.00 0.00 0.00 0.00 0.01 0.02 0.00 0.00 0.00 0.00 0.00 0.00 0.00 0.00 0.00 0.00 0.00 0.00 0.00 0.00 0.00 0.00 0.00 0.00 0.00 0.00 0.00
0.00 0.00 0.00 0.00 0.00 0.00 0.00 0.00 0.00 0.00 0.00 0.00 0.00 0.00 0.00 0.00 0.00 0.01 0.01 0.01 0.01 0.02 0.03 0.01 0.00 0.00 0.00 0.00 0.00 0.00 0.00 0.00 0.00 0.00 0.00 0.00 0.00 0.00 0.00 0.00 0.00 0.00 0.00
0.00 0.00 0.00 0.00 0.00 0.00 0.00 0.00 0.00 0.00 0.00 0.00 0.00 0.00 0.00 0.00 0.00 0.00 0.00 0.00 0.02 0.05 0.08 0.09 0.06 0.02 0.01 0.00 0.00 0.00 0.00 0.00 0.00 0.00 0.00 0.00 0.00 0.00 0.00 0.00 0.00 0.00 0.02
0.00 0.00 0.00 0.00 0.00 0.00 0.00 0.00 0.00 0.00 0.00 0.00 0.00 0.00 0.00 0.00 0.00 0.00 0.00 0.00 0.00 0.03 0.07 0.09 0.10 0.09 0.04 0.01 0.00 0.00 0.00 0.00 0.00 0.00 0.00 0.00 0.00 0.00 0.00 0.01 0.01 0.07 0.10
0.00 0.00 0.00 0.00 0.00 0.00 0.00 0.00 0.00 0.00 0.00 0.00 0.00 0.00 0.00 0.00 0.00 0.00 0.00 0.00 0.00 0.00 0.00 0.03 0.06 0.08 0.06 0.05 0.03 0.00 0.00 0.00 0.00 0.00 0.00 0.00 0.00 0.00 0.00 0.01 0.01 0.05 0.07
0.00 0.00 0.00 0.00 0.00 0.00 0.00 0.00 0.00 0.00 0.00 0.00 0.00 0.00 0.00 0.00 0.00 0.00 0.00 0.00 0.00 0.00 0.00 0.00 0.01 0.02 0.02 0.05 0.07 0.02 0.00 0.00 0.00 0.00 0.00 0.00 0.00 0.00 0.00 0.00 0.01 0.03 0.10
0.00 0.00 0.00 0.00 0.00 0.00 0.00 0.00 0.00 0.00 0.00 0.00 0.00 0.00 0.00 0.00 0.00 0.00 0.00 0.00 0.00 0.00 0.00 0.00 0.00 0.00 0.00 0.00 0.03 0.06 0.00 0.01 0.00 0.00 0.00 0.00 0.00 0.00 0.00 0.00 0.02 0.02 0.06
0.00 0.00 0.00 0.00 0.00 0.00 0.00 0.00 0.00 0.00 0.00 0.00 0.00 0.00 0.00 0.00 0.00 0.00 0.00 0.00 0.00 0.00 0.00 0.00 0.00 0.00 0.00 0.00 0.00 0.02 0.00 0.00 0.00 0.00 0.00 0.00 0.00 0.00 0.00 0.01 0.01 0.01 0.03
0.00 0.00 0.00 0.00 0.00 0.00 0.00 0.00 0.00 0.00 0.00 0.00 0.00 0.00 0.00 0.00 0.00 0.00 0.00 0.00 0.00 0.00 0.00 0.00 0.00 0.00 0.00 0.00 0.00 0.00 0.00 0.00 0.00 0.00 0.00 0.00 0.00 0.00 0.00 0.01 0.01 0.00 0.03
0.00 0.00 0.00 0.00 0.00 0.00 0.00 0.00 0.00 0.00 0.00 0.00 0.00 0.00 0.00 0.00 0.00 0.00 0.00 0.00 0.00 0.00 0.00 0.00 0.00 0.00 0.00 0.00 0.00 0.00 0.00 0.00 0.00 0.00 0.00 0.00 0.00 0.00 0.00 0.00 0.02 0.01 0.01
0.00 0.00 0.00 0.00 0.00 0.00 0.00 0.00 0.00 0.00 0.00 0.00 0.00 0.00 0.00 0.00 0.00 0.00 0.00 0.00 0.00 0.00 0.00 0.00 0.00 0.00 0.00 0.00 0.00 0.00 0.00 0.00 0.00 0.00 0.00 0.00 0.00 0.00 0.00 0.01 0.02 0.02 0.01
0.00 0.00 0.00 0.00 0.00 0.00 0.00 0.00 0.00 0.00 0.00 0.00 0.00 0.00 0.00 0.00 0.00 0.00 0.00 0.00 0.00 0.00 0.00 0.00 0.00 0.00 0.00 0.00 0.00 0.00 0.00 0.00 0.00 0.00 0.00 0.00 0.00 0.01 0.03 0.02 0.01 0.02 0.01
0.00 0.00 0.00 0.00 0.00 0.00 0.00 0.00 0.00 0.00 0.00 0.00 0.00 0.00 0.00 0.00 0.00 0.00 0.00 0.00 0.00 0.00 0.00 0.00 0.00 0.00 0.00 0.00 0.00 0.00 0.00 0.00 0.00 0.00 0.00 0.00 0.00 0.00 0.05 0.05 0.03 0.02 0.04
0.00 0.00 0.00 0.00 0.00 0.00 0.00 0.00 0.00 0.00 0.00 0.00 0.00 0.00 0.00 0.00 0.00 0.00 0.00 0.00 0.00 0.00 0.00 0.00 0.00 0.00 0.00 0.00 0.00 0.00 0.00 0.00 0.00 0.00 0.00 0.00 0.00 0.00 0.01 0.03 0.05 0.03 0.02
0.00 0.00 0.00 0.00 0.00 0.00 0.00 0.00 0.00 0.00 0.00 0.00 0.00 0.00 0.00 0.00 0.00 0.00 0.00 0.00 0.00 0.00 0.00 0.00 0.00 0.00 0.00 0.00 0.00 0.00 0.00 0.00 0.00 0.00 0.00 0.00 0.00 0.00 0.00 0.02 0.06 0.07 0.05
0.00 0.00 0.00 0.00 0.00 0.00 0.00 0.00 0.00 0.00 0.00 0.00 0.00 0.00 0.00 0.00 0.00 0.00 0.00 0.00 0.00 0.00 0.00 0.00 0.00 0.00 0.00 0.00 0.00 0.00 0.00 0.00 0.00 0.00 0.00 0.00 0.00 0.00 0.00 0.00 0.03 0.05 0.07
0.00 0.00 0.00 0.00 0.00 0.00 0.00 0.00 0.00 0.00 0.00 0.00 0.00 0.00 0.00 0.00 0.00 0.00 0.00 0.00 0.00 0.00 0.00 0.00 0.00 0.00 0.00 0.00 0.00 0.00 0.00 0.00 0.00 0.00 0.00 0.00 0.00 0.00 0.00 0.00 0.00 0.01 0.07
0.00 0.00 0.00 0.00 0.00 0.00 0.00 0.00 0.00 0.00 0.00 0.00 0.00 0.00 0.00 0.00 0.00 0.00 0.00 0.00 0.00 0.00 0.00 0.00 0.00 0.00 0.00 0.00 0.00 0.00 0.00 0.00 0.00 0.00 0.00 0.00 0.00 0.00 0.00 0.00 0.00 0.00 0.02
0.00 0.00 0.00 0.00 0.00 0.00 0.00 0.00 0.00 0.00 0.00 0.00 0.00 0.00 0.00 0.00 0.00 0.00 0.00 0.00 0.00 0.00 0.00 0.00 0.00 0.00 0.00 0.00 0.00 0.00 0.00 0.00 0.00 0.00 0.00 0.00 0.00 0.00 0.00 0.00 0.00 0.00 0.00
0.00 0.00 0.00 0.00 0.00 0.00 0.00 0.00 0.00 0.00 0.00 0.00 0.00 0.00 0.00 0.00 0.00 0.00 0.00 0.00 0.00 0.00 0.00 0.00 0.00 0.00 0.00 0.00 0.00 0.00 0.00 0.00 0.00 0.00 0.00 0.00 0.00 0.00 0.00 0.00 0.00 0.00 0.00
0.00 0.00 0.00 0.00 0.00 0.00 0.00 0.00 0.00 0.00 0.00 0.00 0.00 0.00 0.00 0.00 0.00 0.00 0.00 0.00 0.00 0.00 0.00 0.00 0.00 0.00 0.00 0.00 0.00 0.00 0.00 0.00 0.00 0.00 0.00 0.00 0.00 0.00 0.00 0.00 0.00 0.00 0.01
0.00 0.00 0.00 0.00 0.00 0.00 0.00 0.00 0.00 0.00 0.00 0.00 0.00 0.00 0.00 0.00 0.00 0.00 0.00 0.00 0.00 0.00 0.00 0.00 0.00 0.00 0.00 0.00 0.00 0.00 0.00 0.00 0.00 0.00 0.00 0.00 0.00 0.00 0.00 0.00 0.00 0.00 0.00
0.00 0.00 0.00 0.00 0.00 0.00 0.00 0.00 0.00 0.00 0.00 0.00 0.00 0.00 0.00 0.00 0.00 0.00 0.00 0.00 0.00 0.00 0.00 0.00 0.00 0.00 0.00 0.00 0.00 0.00 0.00 0.00 0.00 0.00 0.00 0.00 0.00 0.00 0.00 0.00 0.00 0.00 0.01
0.00 0.00 0.00 0.00 0.00 0.00 0.00 0.00 0.00 0.00 0.00 0.00 0.00 0.00 0.00 0.00 0.00 0.00 0.00 0.00 0.00 0.00 0.00 0.00 0.00 0.00 0.00 0.00 0.00 0.00 0.00 0.01 0.01 0.00 0.00 0.00 0.00 0.00 0.00 0.00 0.00 0.00 0.00
0.00 0.00 0.00 0.00 0.00 0.00 0.00 0.00 0.00 0.00 0.00 0.00 0.00 0.00 0.00 0.00 0.00 0.00 0.00 0.00 0.00 0.00 0.00 0.00 0.00 0.00 0.00 0.00 0.00 0.00 0.00 0.00 0.00 0.00 0.00 0.00 0.00 0.00 0.00 0.00 0.00 0.00 0.00
0.00 0.00 0.00 0.00 0.00 0.00 0.00 0.00 0.00 0.00 0.00 0.00 0.00 0.00 0.00 0.00 0.00 0.00 0.00 0.00 0.00 0.00 0.00 0.00 0.00 0.00 0.00 0.00 0.00 0.00 0.00 0.00 0.00 0.00 0.00 0.00 0.00 0.00 0.00 0.00 0.00 0.00 0.00
MSLP
1016.68 1016.57 1016.40 1016.14 1016.00 1015.63 1015.08 1014.74 1014.32 1014.25 1014.27 1014.18 1014.12 1014.41 1014.54 1014.71 1014.86 1014.83 1014.76 1014.71 1014.81 1014.77 1014.72 1014.54 1014.49 1014.34 1014.37 1014.39 1014.33 1014.31 1014.32 1014.26 1014.31 1014.53 1014.41 1014.12 1013.96 1013.88 1013.86 1013.86 1014.02 1014.05 1013.92
1017.02 1016.94 1016.75 1016.59 1016.43 1016.11 1015.52 1014.97 1014.67 1014.95 1014.93 1014.74 1014.72 1014.71 1014.73 1014.86 1014.93 1015.01 1015.05 1015.08 1015.06 1015.02 1014.83 1014.71 1014.70 1014.39 1014.33 1014.42 1014.49 1014.28 1014.35 1014.28 1014.31 1014.47 1014.47 1014.22 1014.00 1013.82 1013.81 1013.89 1014.03 1014.09 1014.01
1017.21 1017.24 1017.09 1016.91 1016.74 1016.57 1015.86 1015.30 1015.30 1015.44 1015.44 1015.27 1015.25 1015.32 1015.03 1015.16 1015.23 1015.31 1015.27 1015.32 1015.18 1015.12 1014.97 1014.70 1014.66 1014.42 1014.34 1014.42 1014.39 1014.26 1014.22 1014.22 1014.22 1014.32 1014.17 1014.18 1014.11 1013.92 1013.82 1013.85 1014.05 1014.09 1014.10
1017.44 1017.51 1017.35 1017.19 1017.18 1016.83 1016.15 1015.81 1015.77 1015.74 1015.78 1015.94 1015.94 1015.94 1015.63 1015.63 1015.53 1015.49 1015.50 1015.45 1015.22 1015.09 1015.04 1014.74 1014.62 1014.54 1014.41 1014.28 1014.37 1014.15 1014.17 1014.04 1014.11 1014.02 1014.02 1013.84 1013.93 1013.87 1013.83 1013.80 1013.83 1014.04 1014.16
1017.94 1017.81 1017.63 1017.60 1017.41 1017.02 1016.62 1016.42 1016.25 1016.18 1016.11 1016.49 1016.60 1016.38 1016.37 1016.07 1016.00 1016.03 1015.71 1015.55 1015.60 1015.30 1015.23 1014.98 1014.81 1014.73 1014.48 1014.30 1014.24 1013.95 1014.17 1013.96 1013.98 1013.91 1013.81 1013.77 1013.62 1013.64 1013.68 1013.80 1013.83 1013.98 1014.09
1018.05 1018.09 1018.08 1017.85 1017.68 1017.40 1016.98 1017.04 1017.15 1016.92 1016.90 1016.94 1017.18 1017.06 1017.02 1016.91 1016.83 1016.64 1016.18 1015.89 1015.86 1015.67 1015.38 1015.21 1015.18 1014.95 1014.66 1014.46 1014.15 1014.02 1013.88 1013.91 1013.83 1013.84 1013.67 1013.52 1013.49 1013.36 1013.33 1013.55 1013.78 1013.86 1013.98
1018.50 1018.49 1018.28 1018.14 1017.94 1017.66 1017.70 1017.70 1017.88 1017.87 1017.70 1017.67 1017.33 1017.38 1017.33 1017.25 1017.13 1017.03 1016.75 1016.38 1016.16 1015.98 1015.74 1015.44 1015.25 1015.11 1014.81 1014.49 1014.27 1013.95 1013.85 1013.60 1013.61 1013.58 1013.49 1013.42 1013.38 1013.28 1013.07 1013.08 1013.42 1013.59 1013.77
1018.94 1018.94 1018.76 1018.35 1018.07 1017.92 1018.02 1018.09 1018.24 1018.59 1018.14 1017.85 1017.68 1017.62 1017.62 1017.37 1017.45 1017.48 1017.27 1017.05 1016.66 1016.36 1016.01 1015.80 1015.65 1015.37 1015.06 1014.66 1014.29 1014.04 1013.73 1013.50 1013.34 1013.29 1013.16 1013.16 1013.13 1013.06 1013.03 1012.86 1012.90 1013.21 1013.50
1019.28 1019.26 1019.06 1018.88 1018.71 1018.73 1018.48 1018.47 1018.77 1018.72 1018.62 1018.30 1018.03 1017.71 1018.05 1018.19 1017.97 1017.89 1017.58 1017.39 1017.04 1016.75 1016.53 1016.16 1015.96 1015.72 1015.41 1015.04 1014.67 1014.26 1013.65 1013.28 1013.18 1013.09 1012.98 1012.78 1012.77 1012.74 1012.69 1012.71 1012.59 1012.75 1013.10
1019.66 1019.62 1019.46 1019.32 1019.19 1019.34 1019.35 1019.05 1019.08 1018.96 1018.94 1018.70 1018.22 1018.11 1018.36 1018.59 1018.22 1017.98 1017.84 1017.68 1017.55 1017.13 1016.98 1016.67 1016.33 1015.92 1015.65 1015.33 1014.86 1014.43 1013.95 1013.12 1012.87 1012.82 1012.80 1012.66 1012.41 1012.35 1012.33 1012.26 1012.38 1012.34 1012.62
1020.24 1020.12 1019.99 1019.87 1019.77 1019.64 1019.69 1019.69 1019.65 1019.52 1019.48 1019.06 1018.95 1018.75 1018.90 1019.09 1018.73 1018.58 1018.35 1018.12 1017.92 1017.63 1017.38 1017.14 1016.69 1016.31 1015.73 1015.39 1014.98 1014.61 1014.21 1013.64 1013.35 1012.55 1012.34 1012.26 1012.21 1012.07 1011.89 1011.90 1011.99 1012.03 1012.21
1020.41 1020.22 1019.93 1019.69 1019.62 1019.53 1019.47 1019.66 1019.69 1019.70 1019.69 1019.60 1019.54 1019.43 1019.66 1019.72 1019.32 1019.11 1018.93 1018.57 1018.39 1017.92 1017.77 1017.39 1017.05 1016.71 1016.31 1015.73 1015.15 1014.75 1014.46 1014.06 1013.54 1012.93 1012.13 1011.85 1011.78 1011.67 1011.46 1011.33 1011.41 1011.53 1011.63
1020.49 1020.34 1020.30 1020.21 1020.24 1020.26 1020.39 1020.54 1020.61 1020.64 1020.61 1020.55 1020.55 1020.45 1020.47 1020.16 1019.98 1019.77 1019.50 1019.15 1018.83 1018.26 1018.06 1017.79 1017.50 1017.04 1016.61 1016.32 1015.54 1015.04 1014.58 1014.15 1013.54 1013.01 1012.35 1011.82 1011.53 1011.27 1010.95 1010.84 1010.86 1010.89 1011.18
1020.86 1021.01 1021.03 1020.98 1020.98 1021.17 1021.22 1021.38 1021.46 1021.33 1021.35 1021.42 1021.35 1021.14 1021.01 1020.75 1020.54 1020.22 1019.93 1019.61 1019.15 1018.76 1018.41 1017.92 1017.46 1017.20 1016.84 1016.33 1015.87 1015.18 1014.58 1014.18 1013.52 1012.92 1012.41 1011.98 1011.40 1011.06 1010.61 1010.31 1010.34 1010.33 1010.50
1021.29 1021.46 1021.50 1021.42 1021.47 1021.59 1021.79 1022.00 1022.02 1022.08 1022.11 1022.07 1021.86 1021.54 1021.29 1021.06 1020.82 1020.57 1020.35 1019.98 1019.64 1019.08 1018.65 1018.05 1017.59 1017.07 1016.70 1016.27 1015.82 1015.35 1014.65 1014.13 1013.67 1013.11 1012.24 1011.71 1011.37 1010.79 1010.35 1009.94 1009.69 1009.81 1009.92
1021.72 1021.79 1021.86 1021.89 1022.02 1022.07 1022.22 1022.27 1022.42 1022.55 1022.64 1022.51 1022.30 1022.01 1021.65 1021.42 1021.20 1020.88 1020.62 1020.29 1019.99 1019.60 1018.94 1018.25 1017.76 1017.16 1016.62 1016.15 1015.71 1015.22 1014.65 1014.10 1013.52 1012.86 1012.29 1011.44 1010.95 1010.47 1010.12 1009.62 1009.35 1009.14 1009.22
1021.96 1022.12 1022.25 1022.28 1022.40 1022.53 1022.70 1022.72 1022.75 1022.69 1022.77 1022.65 1022.47 1022.34 1022.13 1021.87 1021.67 1021.40 1020.91 1020.53 1020.26 1019.73 1019.18 1018.61 1018.03 1017.43 1016.78 1016.20 1015.63 1014.99 1014.41 1013.71 1013.11 1012.58 1011.90 1011.32 1010.58 1010.15 1009.68 1009.18 1008.84 1008.84 1008.68
1022.09 1022.41 1022.47 1022.43 1022.85 1022.93 1023.10 1023.27 1023.37 1023.34 1023.15 1023.06 1023.04 1022.85 1022.47 1022.12 1021.82 1021.43 1021.11 1020.81 1020.53 1019.98 1019.28 1018.75 1018.18 1017.47 1016.78 1016.08 1015.42 1014.83 1014.02 1013.24 1012.71 1011.98 1011.33 1010.89 1010.29 1009.93 1009.15 1008.90 1008.26 1008.26 1008.10
1022.35 1022.81 1022.91 1022.95 1023.07 1023.20 1023.38 1023.48 1023.62 1023.71 1023.62 1023.53 1023.36 1023.05 1022.69 1022.51 1022.17 1021.79 1021.34 1020.97 1020.57 1019.99 1019.26 1018.80 1018.26 1017.66 1016.72 1015.86 1014.94 1014.28 1013.47 1012.58 1011.98 1011.42 1010.79 1010.34 1009.95 1009.55 1008.96 1008.38 1007.95 1007.61 1007.61
1022.56 1022.97 1023.20 1023.26 1023.34 1023.28 1023.33 1023.49 1023.60 1023.73 1023.78 1023.58 1023.49 1023.37 1023.04 1022.68 1022.39 1022.01 1021.56 1021.24 1020.54 1019.86 1019.42 1019.00 1018.50 1017.75 1016.89 1016.02 1014.76 1013.89 1012.75 1011.84 1011.43 1011.04 1010.56 1009.81 1009.44 1009.09 1008.64 1008.14 1007.74 1007.15 1006.98
1022.98 1023.25 1023.40 1023.57 1023.79 1023.65 1023.74 1023.78 1023.82 1024.12 1024.01 1023.88 1023.73 1023.53 1023.20 1022.95 1022.54 1022.22 1021.75 1021.42 1020.78 1020.25 1019.75 1019.31 1018.80 1017.94 1016.74 1016.06 1014.86 1013.77 1012.23 1011.05 1011.10 1010.79 1010.17 1009.37 1009.17 1008.87 1008.42 1007.87 1007.48 1007.07 1006.43
1023.14 1023.50 1023.59 1023.79 1023.95 1023.92 1023.96 1024.15 1024.22 1024.37 1024.25 1024.05 1023.86 1023.67 1023.53 1023.28 1022.92 1022.39 1022.29 1021.65 1021.03 1020.53 1020.15 1019.72 1019.17 1018.24 1017.11 1016.63 1016.12 1014.61 1012.70 1011.33 1010.93 1010.44 1009.99 1009.34 1009.13 1008.72 1008.20 1007.78 1007.34 1006.73 1006.18
1023.31 1023.70 1023.66 1023.82 1024.17 1024.38 1024.25 1024.06 1024.02 1024.11 1024.32 1024.31 1024.30 1024.23 1023.80 1023.52 1023.30 1023.00 1022.72 1022.18 1021.39 1020.71 1020.51 1020.10 1019.44 1018.49 1017.88 1017.15 1016.82 1016.12 1014.36 1013.26 1012.21 1010.43 1009.95 1009.48 1009.22 1008.68 1008.23 1007.78 1007.30 1006.91 1006.29
1023.52 1023.82 1023.94 1024.05 1024.47 1024.74 1024.46 1024.46 1024.38 1024.29 1024.82 1025.12 1024.83 1024.50 1023.99 1023.84 1023.67 1023.38 1022.96 1022.22 1021.57 1021.09 1020.73 1020.37 1019.96 1019.18 1018.57 1017.88 1017.12 1016.17 1016.02 1015.15 1013.43 1011.26 1010.27 1009.80 1009.24 1008.74 1008.23 1007.84 1007.46 1006.93 1006.43
1023.62 1024.20 1024.15 1024.20 1024.65 1024.74 1024.63 1024.64 1024.73 1024.99 1025.29 1025.26 1024.90 1024.82 1024.60 1024.19 1023.96 1023.59 1022.88 1022.53 1021.97 1021.45 1021.14 1020.89 1020.22 1019.79 1019.15 1018.86 1018.35 1017.24 1016.10 1015.19 1014.13 1013.40 1010.89 1009.79 1009.35 1008.80 1008.25 1007.67 1007.28 1006.84 1006.19
1023.90 1024.64 1024.65 1024.62 1024.78 1024.99 1024.83 1024.76 1025.32 1025.54 1025.82 1025.88 1025.46 1025.01 1024.61 1024.37 1024.08 1023.84 1023.34 1023.01 1022.45 1022.05 1021.66 1021.31 1020.78 1020.21 1019.77 1019.47 1019.11 1018.31 1017.24 1016.33 1015.42 1014.65 1012.85 1011.29 1009.84 1008.33 1008.11 1007.51 1007.00 1006.51 1005.99
Thickness
5710 5711 5711 5713 5714 5716 5721 5723 5727 5726 5726 5725 5725 5720 5717 5713 5710 5710 5710 5709 5705 5703 5702 5704 5703 5704 5704 5704 5704 5704 5703 5704 5703 5700 5701 5703 5704 5705 5704 5704 5702 5701 5702
5703 5703 5703 5704 5706 5709 5714 5718 5720 5718 5716 5716 5715 5714 5713 5710 5708 5706 5704 5702 5700 5698 5697 5698 5698 5701 5700 5699 5699 5702 5700 5701 5700 5697 5697 5699 5702 5703 5702 5701 5699 5698 5698
5697 5697 5697 5698 5700 5701 5707 5712 5711 5710 5708 5708 5707 5705 5707 5705 5703 5701 5699 5697 5696 5695 5694 5696 5696 5698 5698 5695 5696 5697 5698 5698 5698 5696 5697 5697 5699 5699 5699 5699 5696 5696 5695
5691 5691 5691 5691 5691 5694 5700 5703 5704 5704 5703 5700 5698 5696 5697 5695 5696 5696 5694 5693 5694 5693 5691 5693 5693 5692 5693 5693 5692 5695 5694 5696 5696 5697 5696 5697 5697 5696 5696 5696 5695 5693 5692
5685 5685 5685 5684 5686 5688 5691 5693 5695 5696 5696 5692 5689 5688 5686 5688 5687 5686 5689 5689 5688 5689 5688 5688 5688 5688 5688 5690 5689 5693 5690 5692 5693 5694 5696 5695 5696 5695 5695 5692 5692 5690 5689
5680 5679 5677 5678 5679 5680 5684 5684 5683 5685 5684 5683 5680 5679 5676 5676 5677 5678 5682 5684 5682 5683 5685 5685 5682 5682 5685 5684 5686 5687 5687 5687 5688 5689 5692 5694 5693 5694 5694 5692 5689 5688 5687
5672 5672 5672 5672 5673 5675 5675 5675 5673 5672 5672 5672 5674 5671 5669 5670 5670 5671 5672 5674 5676 5677 5677 5679 5679 5678 5679 5681 5680 5682 5684 5686 5685 5686 5687 5689 5689 5690 5691 5691 5688 5687 5685
5665 5665 5666 5668 5669 5669 5668 5666 5664 5661 5665 5666 5666 5664 5664 5664 5662 5661 5662 5664 5665 5667 5670 5670 5670 5671 5673 5675 5677 5677 5680 5682 5684 5684 5685 5685 5684 5685 5687 5688 5688 5685 5683
5657 5657 5659 5660 5660 5659 5659 5659 5655 5654 5656 5657 5657 5659 5656 5653 5653 5652 5654 5654 5657 5658 5659 5661 5662 5662 5664 5666 5668 5671 5676 5679 5679 5681 5682 5683 5681 5681 5682 5684 5685 5684 5681
5648 5648 5649 5650 5651 5649 5648 5648 5646 5646 5646 5648 5651 5650 5647 5643 5645 5646 5645 5644 5644 5647 5648 5649 5651 5653 5655 5657 5660 5663 5666 5674 5677 5677 5677 5678 5679 5679 5679 5680 5681 5681 5680
5639 5639 5640 5640 5640 5640 5638 5635 5636 5635 5635 5638 5639 5639 5637 5633 5634 5634 5633 5632 5633 5634 5635 5636 5640 5642 5646 5648 5652 5654 5657 5662 5665 5671 5674 5674 5674 5676 5676 5676 5677 5678 5678
5633 5633 5634 5636 5635 5634 5633 5631 5629 5628 5627 5627 5626 5625 5621 5618 5619 5619 5619 5620 5620 5622 5622 5624 5626 5628 5631 5636 5640 5644 5647 5651 5656 5660 5667 5670 5670 5671 5674 5674 5676 5675 5676
5626 5626 5626 5626 5624 5622 5620 5617 5614 5611 5610 5609 5607 5605 5603 5604 5603 5603 5603 5605 5607 5609 5610 5610 5612 5615 5617 5619 5625 5629 5633 5638 5645 5650 5657 5661 5664 5666 5670 5672 5673 5674 5672
5616 5613 5612 5610 5609 5606 5604 5601 5598 5596 5594 5591 5589 5588 5587 5587 5586 5587 5588 5589 5592 5594 5596 5599 5601 5602 5604 5607 5610 5616 5621 5624 5632 5640 5646 5650 5655 5659 5664 5667 5669 5671 5670
5606 5602 5601 5600 5598 5595 5590 5586 5583 5581 5578 5576 5575 5575 5575 5575 5574 5574 5573 5574 5575 5579 5581 5584 5587 5590 5592 5596 5599 5602 5608 5613 5617 5625 5635 5640 5645 5651 5656 5661 5665 5667 5668
5596 5593 5590 5588 5584 5581 5578 5575 5572 5567 5564 5562 5561 5561 5561 5560 5560 5560 5559 5560 5560 5562 5566 5570 5572 5576 5579 5582 5585 5589 5594 5600 5605 5613 5621 5631 5636 5642 5646 5652 5657 5663 5665
5586 5582 5577 5575 5572 5569 5566 5562 5559 5556 5552 5551 5549 5546 5545 5545 5544 5544 5545 5545 5545 5547 5550 5554 5557 5560 5564 5567 5571 5576 5581 5587 5594 5600 5609 5617 5627 5632 5638 5644 5649 5653 5660
5574 5569 5565 5564 5559 5557 5553 5548 5544 5542 5540 5538 5534 5533 5533 5532 5531 5532 5531 5530 5529 5531 5535 5537 5540 5544 5548 5553 5556 5560 5567 5573 5577 5586 5596 5603 5612 5619 5629 5634 5641 5645 5653
5563 5556 5552 5551 5547 5544 5539 5536 5531 5527 5524 5522 5520 5520 5520 5517 5516 5516 5516 5516 5515 5516 5519 5521 5522 5524 5530 5536 5543 5547 5552 5558 5564 5570 5579 5588 5596 5605 5614 5623 5631 5637 5644
5551 5545 5540 5537 5534 5532 5528 5524 5521 5516 5512 5510 5508 5504 5504 5503 5501 5500 5500 5500 5501 5502 5502 5502 5504 5505 5510 5517 5527 5532 5537 5543 5549 5554 5561 5573 5581 5589 5598 5608 5617 5628 5635
5538 5534 5530 5525 5520 5518 5515 5512 5509 5502 5500 5497 5495 5492 5490 5487 5486 5485 5485 5483 5484 5485 5485 5485 5486 5489 5494 5500 5509 5515 5523 5532 5533 5537 5547 5558 5566 5573 5583 5594 5603 5613 5625
5527 5522 5518 5513 5509 5506 5503 5499 5495 5489 5487 5484 5481 5479 5476 5473 5472 5472 5469 5469 5470 5469 5468 5468 5469 5474 5478 5481 5484 5494 5511 5518 5522 5526 5533 5543 5548 5556 5567 5577 5588 5599 5611
5514 5507 5505 5502 5496 5491 5489 5488 5485 5482 5475 5470 5465 5462 5461 5458 5457 5455 5454 5453 5455 5456 5454 5454 5456 5461 5462 5466 5467 5471 5488 5496 5499 5514 5521 5528 5534 5542 5550 5561 5572 5582 5594
5500 5495 5493 5490 5483 5478 5477 5475 5473 5467 5458 5451 5449 5448 5447 5443 5441 5440 5439 5441 5442 5442 5442 5442 5442 5446 5449 5451 5456 5463 5462 5469 5485 5502 5508 5514 5522 5529 5537 5545 5555 5566 5577
5491 5485 5483 5478 5471 5468 5465 5463 5458 5451 5444 5440 5438 5434 5432 5430 5428 5427 5428 5427 5428 5429 5428 5428 5432 5433 5437 5437 5439 5447 5454 5460 5470 5477 5497 5504 5511 5518 5526 5534 5542 5552 5563
5481 5475 5468 5464 5460 5455 5454 5451 5442 5435 5429 5424 5422 5420 5419 5417 5416 5415 5413 5413 5414 5415 5416 5417 5419 5422 5425 5426 5427 5431 5439 5445 5451 5456 5472 5484 5497 5513 5516 5524 5531 5541 5550